Location: Hormuz
(27.0871°N, 56.4580°E)
Time: 19:08:10
(UTC+04:30)

Hubble Space Telescope - Visible Passes

Search period start: 09 April 2020 00:00
Search period end: 19 April 2020 00:00
Orbit: 536 x 540 km, 28.5° (Epoch: 08 April)

Date Brightness Start Highest point End Pass type
(mag) Time Alt. Az. Time Alt. Az. Time Alt. Az.
09 Apr 0.8 20:13:58 10° W 20:18:05 79° N 20:19:58 31° ENE visible
09 Apr 4.0 21:55:15 10° W 21:55:18 10° W 21:55:18 10° W visible
10 Apr 0.8 20:03:21 10° W 20:07:28 74° N 20:10:00 22° ENE visible
10 Apr 3.7 21:44:37 10° W 21:45:20 15° W 21:45:20 15° W visible
11 Apr 0.9 19:52:44 10° W 19:56:51 72° N 20:00:00 16° E visible
11 Apr 3.2 21:34:00 10° W 21:35:20 20° W 21:35:20 20° W visible
12 Apr 0.9 19:42:07 10° W 19:46:14 71° N 19:49:58 12° E visible
12 Apr 2.7 21:23:22 10° W 21:25:18 26° W 21:25:18 26° W visible
13 Apr 0.9 19:31:30 10° W 19:35:37 73° N 19:39:44 10° E visible
13 Apr 2.2 21:12:45 10° W 21:15:15 34° W 21:15:15 34° W visible
14 Apr 1.7 21:02:09 10° W 21:05:12 41° WSW 21:05:12 41° WSW visible
15 Apr 1.6 20:51:34 10° W 20:55:10 40° SSW 20:55:10 40° SSW visible
16 Apr 1.8 20:41:03 10° W 20:44:46 33° SSW 20:45:09 32° S visible
17 Apr 2.2 20:30:35 10° W 20:34:04 26° SSW 20:35:10 23° S visible
18 Apr 2.6 20:20:13 10° WSW 20:23:21 21° SSW 20:25:13 16° S visible
